Wind_Speed
10 10 10 10 10 10 11 11 11 11 11 11 12 12 13 12 12 12 12 13 13 13 13 13 13 14 14 14 14 14 15 16 16 16 17 17 16 17 16 15 15 15 15
10 10 10 10 10 10 10 11 11 11 11 11 11 12 12 12 12 12 12 12 12 12 12 13 14 14 14 14 14 14 14 14 15 15 16 16 16 16 16 15 15 15 14
10 10 10 10 10 10 10 10 11 11 11 11 11 11 12 12 13 13 13 13 12 13 13 13 13 13 14 14 14 13 13 12 13 13 14 15 16 16 16 15 16 16 15
11 10 10 10 10 10 10 11 11 11 11 11 11 11 12 12 12 13 13 13 13 13 13 13 13 13 14 14 13 13 12 12 12 12 13 14 15 15 15 16 16 16 15
11 10 10 10 11 11 10 11 11 11 11 11 11 11 11 12 12 12 13 13 13 13 13 13 13 13 13 13 13 12 12 12 12 12 12 13 14 14 15 15 16 16 15
11 11 10 11 11 11 11 11 10 11 11 11 11 11 10 11 12 12 13 14 14 13 13 13 13 13 13 13 12 11 12 12 12 12 13 13 13 14 14 15 15 15 15
11 11 10 10 10 10 10 10 11 11 11 11 12 12 12 12 13 13 14 14 14 14 14 14 14 14 14 14 13 12 12 12 12 12 12 12 13 13 14 15 15 15 15
12 12 11 10 10 11 11 11 11 11 11 12 12 12 13 13 14 15 15 15 15 14 14 15 16 15 15 15 14 13 13 12 12 11 11 12 12 12 13 13 13 13 13
12 13 12 11 12 12 11 11 11 11 11 12 12 13 13 14 14 14 14 14 14 14 15 15 16 17 16 16 16 15 15 13 13 13 12 11 12 12 12 12 12 13 13
13 13 12 12 13 13 12 12 12 12 12 12 13 13 13 13 14 14 15 16 16 15 16 16 16 17 17 17 17 17 16 15 14 14 14 13 12 13 13 13 13 13 14
13 13 13 13 13 14 13 13 13 13 12 13 13 14 14 14 15 15 15 16 17 16 17 17 17 17 17 18 18 18 17 17 16 16 15 15 14 14 14 14 14 15 15
14 14 14 14 14 14 13 13 13 14 13 14 14 15 16 15 15 16 16 16 16 16 17 18 18 17 17 18 18 18 18 17 17 17 17 17 17 16 16 15 15 15 15
15 15 15 15 15 15 14 14 14 14 15 15 16 16 17 16 16 16 17 17 18 18 18 19 19 18 18 17 17 18 18 17 17 17 17 17 17 16 16 16 16 16 16
16 16 16 16 16 16 16 15 15 15 16 16 16 17 17 17 17 17 18 18 19 18 18 18 18 18 18 18 17 18 19 18 18 18 17 18 18 17 17 17 18 18 17
17 17 17 17 17 17 17 17 17 17 17 17 17 18 17 17 18 18 18 19 18 18 18 18 19 19 18 18 18 18 18 18 18 18 19 19 18 18 18 18 18 18 18
18 18 19 19 19 19 19 19 19 19 19 19 18 18 18 18 19 18 19 19 19 19 19 19 19 19 19 18 19 18 19 18 18 19 19 18 18 18 18 18 18 18 18
19 19 20 20 20 20 20 20 20 21 21 21 20 20 20 19 19 19 19 20 20 20 20 19 19 19 19 19 19 19 19 19 19 19 20 20 20 19 20 20 19 19 19
20 20 20 21 21 21 21 21 22 22 22 22 21 21 21 20 20 20 20 20 20 20 20 20 20 20 20 19 19 20 19 19 20 21 20 20 20 20 20 20 20 20 19
21 21 22 22 22 23 23 23 23 23 23 23 23 22 22 21 21 21 21 21 21 21 21 21 21 21 21 20 20 20 20 20 21 21 21 21 21 21 21 21 20 20 20
23 23 23 23 23 24 23 24 24 23 23 24 24 23 23 23 22 22 22 22 22 22 22 22 22 21 21 21 21 21 20 21 21 22 22 22 21 21 21 21 20 20 20
23 24 24 24 24 24 24 24 24 24 24 24 24 24 23 23 23 23 23 23 23 23 22 22 22 22 22 22 23 23 22 22 22 22 22 22 22 22 22 22 22 21 22
25 25 25 25 25 24 24 24 24 25 25 24 24 25 24 24 25 25 25 24 24 24 23 23 23 23 23 23 24 24 24 23 23 23 23 23 23 23 23 23 23 23 23
26 26 26 26 26 25 24 24 25 24 24 24 24 25 25 25 25 26 26 26 26 25 24 24 24 24 24 25 25 24 24 24 24 24 24 24 25 25 25 24 24 24 24
28 27 27 26 26 26 25 25 25 25 25 25 25 25 26 26 26 27 27 27 27 26 25 25 26 26 25 26 26 26 25 25 25 26 26 25 25 26 26 26 26 26 25
28 28 27 27 26 26 26 25 25 25 25 25 25 25 25 25 26 27 27 27 27 26 26 26 26 26 27 28 27 27 27 27 26 27 27 27 26 26 27 27 27 27 27
28 28 27 27 26 25 25 25 25 25 25 25 25 25 25 26 27 27 27 28 28 27 27 27 27 27 27 28 28 28 28 28 28 27 27 27 26 26 26 26 27 27 27
Wind_Direction
290 288 283 278 277 277 272 271 270 270 271 272 267 264 263 261 258 255 258 260 259 257 258 259 260 262 261 261 262 263 263 262 262 258 253 252 252 250 249 248 248 251 253
289 287 284 280 276 274 272 272 270 271 272 271 268 263 260 259 256 254 254 257 258 256 257 260 261 262 263 262 264 265 265 264 262 258 254 250 251 249 247 247 247 250 254
289 287 286 286 281 276 277 275 272 273 271 271 269 262 258 257 256 256 255 257 257 255 255 259 260 262 262 264 264 264 264 264 261 256 252 250 249 247 246 245 247 251 255
290 289 286 284 281 280 279 276 274 273 270 272 274 267 262 261 258 256 256 254 255 255 256 258 259 260 260 262 262 261 261 261 257 253 250 249 249 247 247 247 248 251 254
291 290 287 285 282 281 279 277 275 271 267 269 270 268 265 260 259 255 253 254 255 254 256 260 260 259 260 261 260 260 259 259 258 254 251 249 248 248 247 248 249 251 253
292 291 288 287 284 282 282 278 274 270 267 266 263 263 263 259 259 255 252 254 255 257 258 259 261 259 259 260 259 259 260 259 260 258 254 252 250 249 249 250 251 252 253
291 291 290 290 289 288 286 280 275 271 268 267 262 257 259 261 262 258 254 255 257 259 258 258 258 259 259 259 258 259 260 258 257 256 255 252 251 250 251 252 251 251 252
285 285 285 287 289 291 288 280 277 272 269 268 263 258 258 259 262 258 255 254 257 257 258 258 256 257 259 256 255 255 259 259 255 254 253 251 249 247 248 247 247 248 248
286 284 283 284 285 286 285 280 276 274 270 267 264 263 264 262 260 258 254 252 254 255 256 257 256 256 257 256 253 254 256 256 255 254 252 251 249 246 248 249 251 252 251
288 286 285 286 285 283 282 278 274 272 269 267 265 265 266 265 261 259 257 256 256 258 257 257 258 257 255 255 253 253 254 255 255 253 250 250 250 248 248 251 253 253 253
286 285 284 284 284 283 281 278 274 270 269 267 266 266 268 268 262 260 260 259 259 259 260 259 259 257 256 256 254 251 252 252 252 253 251 251 251 250 249 249 251 251 252
284 282 281 282 284 283 282 280 274 270 267 266 266 267 267 267 264 263 261 261 261 261 262 262 261 259 257 256 254 251 250 249 251 250 248 248 250 250 250 250 252 254 255
284 281 280 280 281 282 281 278 276 272 268 266 267 268 267 265 264 264 265 265 264 264 264 263 260 260 257 256 253 251 249 247 250 251 249 249 250 250 252 255 256 256 257
282 282 282 280 280 279 278 276 274 271 270 268 270 270 269 267 266 266 266 265 265 265 264 260 257 257 257 257 254 251 247 248 249 249 249 249 250 252 254 256 256 255 256
279 278 279 280 279 278 276 274 273 271 269 270 272 273 272 270 268 265 264 264 265 265 263 261 257 257 259 257 254 250 249 248 247 246 247 249 251 253 255 256 256 255 253
279 277 277 278 278 277 276 276 273 270 269 270 271 273 272 270 267 265 263 262 263 264 264 262 259 258 259 257 253 252 250 249 248 248 247 248 250 252 255 255 255 255 254
279 279 278 277 277 277 276 276 274 270 269 269 270 271 271 269 267 266 264 261 262 263 265 262 259 258 259 257 253 254 253 251 250 251 249 251 253 255 256 256 254 254 255
278 279 279 278 277 276 277 276 274 271 269 268 268 269 269 267 267 266 265 263 262 263 264 263 261 260 258 256 254 253 252 251 250 251 251 253 254 256 258 258 257 255 255
280 280 281 279 277 276 276 275 274 272 270 267 266 267 267 267 267 266 265 264 262 262 262 262 260 259 256 255 253 253 254 254 253 252 252 253 255 257 257 257 257 256 256
278 279 280 280 278 276 276 275 273 271 270 268 266 266 266 266 266 266 264 263 262 262 262 261 259 258 255 254 254 254 255 256 255 253 253 253 254 256 256 256 256 256 256
279 279 278 279 280 277 276 277 274 271 270 269 267 266 266 266 265 265 263 263 261 261 261 260 258 257 255 254 254 255 256 257 255 254 253 252 253 255 256 256 256 256 256
280 280 278 278 279 279 277 276 274 272 271 269 268 266 265 265 264 263 263 263 262 261 260 259 258 256 256 255 256 257 256 257 256 254 253 253 254 256 257 255 255 256 257
279 280 278 277 278 278 276 274 273 273 272 270 269 268 266 266 265 264 263 263 261 260 260 259 257 256 256 255 256 257 256 256 257 255 255 253 254 256 257 256 255 255 256
280 279 278 277 277 277 276 275 273 272 272 271 270 269 268 267 266 264 263 262 260 259 259 259 257 256 256 255 256 256 256 257 257 258 258 255 255 255 256 257 257 255 256
280 280 279 277 277 276 275 275 274 273 273 272 272 271 269 267 266 264 262 260 259 258 259 258 257 256 256 256 256 256 256 257 257 258 258 258 257 256 256 257 257 256 256
279 281 280 277 275 275 273 273 274 273 273 273 273 271 270 268 266 264 261 259 259 258 259 259 259 257 257 256 257 257 257 257 257 256 257 257 258 257 256 256 256 256 257
Height
5840 5839 5838 5838 5837 5837 5836 5836 5836 5836 5835 5835 5835 5835 5835 5835 5836 5836 5837 5837 5837 5838 5838 5839 5839 5839 5839 5840 5839 5839 5838 5837 5836 5836 5837 5839 5840 5842 5843 5844 5845 5846 5847
5837 5836 5836 5835 5835 5834 5833 5833 5833 5832 5832 5832 5832 5832 5832 5832 5833 5833 5834 5834 5834 5834 5835 5836 5836 5836 5836 5836 5836 5836 5835 5833 5832 5831 5832 5834 5837 5838 5839 5841 5842 5843 5844
5834 5833 5833 5832 5832 5831 5831 5830 5830 5829 5829 5829 5829 5829 5829 5829 5829 5830 5830 5831 5831 5832 5832 5833 5833 5833 5833 5833 5833 5833 5832 5830 5829 5828 5829 5831 5833 5835 5836 5838 5839 5840 5840
5831 5831 5830 5829 5829 5828 5828 5827 5827 5826 5826 5826 5826 5826 5826 5826 5826 5827 5827 5828 5828 5829 5829 5830 5830 5830 5830 5830 5830 5830 5829 5828 5827 5827 5828 5829 5830 5832 5833 5834 5835 5836 5837
5828 5828 5827 5827 5826 5825 5825 5824 5824 5823 5823 5823 5823 5823 5823 5823 5823 5824 5824 5825 5825 5826 5826 5827 5827 5827 5827 5827 5827 5827 5827 5826 5826 5826 5826 5827 5828 5829 5830 5831 5832 5833 5833
5826 5825 5824 5824 5823 5822 5822 5821 5821 5820 5820 5820 5820 5820 5820 5820 5820 5821 5821 5822 5822 5822 5823 5823 5824 5824 5824 5824 5824 5824 5824 5824 5824 5824 5824 5825 5825 5826 5827 5828 5828 5829 5829
5823 5822 5821 5821 5820 5819 5819 5818 5818 5817 5817 5817 5817 5817 5817 5817 5817 5817 5818 5818 5818 5819 5820 5820 5821 5821 5821 5822 5822 5822 5822 5822 5822 5822 5822 5822 5823 5823 5824 5824 5825 5825 5826
5819 5819 5818 5818 5817 5816 5815 5815 5814 5814 5814 5814 5814 5814 5814 5815 5814 5814 5815 5815 5815 5816 5816 5817 5817 5817 5818 5818 5819 5819 5819 5819 5819 5819 5820 5820 5820 5820 5821 5821 5821 5822 5823
5816 5815 5815 5814 5813 5813 5812 5811 5811 5811 5811 5811 5811 5811 5811 5811 5811 5811 5811 5811 5812 5812 5813 5813 5813 5813 5814 5814 5815 5816 5816 5816 5816 5817 5817 5817 5817 5817 5818 5818 5819 5819 5820
5812 5812 5811 5810 5810 5809 5808 5808 5807 5807 5807 5807 5807 5807 5807 5807 5807 5807 5808 5808 5808 5809 5809 5809 5809 5809 5810 5810 5811 5811 5812 5813 5813 5813 5814 5814 5814 5814 5815 5815 5816 5816 5816
5809 5808 5807 5807 5806 5805 5804 5804 5803 5803 5803 5803 5803 5803 5803 5803 5803 5803 5804 5804 5804 5804 5804 5805 5805 5805 5805 5806 5806 5807 5807 5808 5809 5810 5810 5811 5811 5811 5811 5812 5812 5812 5813
5805 5804 5804 5803 5802 5801 5801 5800 5799 5799 5799 5799 5799 5799 5799 5799 5799 5799 5799 5799 5799 5800 5800 5800 5800 5800 5800 5801 5801 5802 5803 5803 5804 5805 5806 5807 5807 5807 5808 5808 5808 5809 5809
5801 5800 5800 5799 5798 5797 5797 5796 5795 5795 5795 5795 5794 5794 5794 5794 5794 5794 5794 5794 5795 5795 5795 5795 5795 5795 5795 5796 5796 5797 5798 5799 5800 5800 5801 5802 5803 5803 5804 5804 5804 5805 5805
5796 5795 5795 5794 5794 5793 5792 5792 5791 5791 5790 5790 5790 5789 5789 5789 5789 5789 5789 5789 5789 5790 5790 5790 5790 5790 5791 5791 5791 5792 5793 5794 5795 5796 5797 5798 5799 5799 5800 5800 5800 5801 5801
5791 5790 5790 5790 5789 5788 5788 5787 5786 5786 5785 5785 5785 5784 5784 5784 5783 5784 5784 5784 5784 5785 5785 5785 5786 5786 5786 5786 5787 5787 5788 5789 5790 5791 5792 5793 5794 5794 5795 5795 5795 5796 5796
5785 5785 5784 5784 5783 5783 5782 5782 5781 5780 5780 5780 5779 5779 5779 5778 5778 5778 5778 5778 5778 5779 5779 5780 5780 5780 5781 5781 5782 5782 5783 5784 5785 5786 5787 5788 5789 5789 5790 5790 5791 5791 5791
5780 5779 5778 5778 5777 5777 5776 5776 5775 5774 5774 5774 5773 5773 5773 5773 5772 5772 5772 5773 5773 5773 5773 5774 5774 5775 5775 5776 5776 5777 5778 5779 5780 5781 5781 5782 5783 5784 5784 5785 5785 5786 5786
5774 5773 5772 5771 5771 5770 5770 5769 5768 5768 5767 5767 5767 5767 5767 5767 5766 5766 5766 5766 5767 5767 5767 5768 5768 5769 5769 5770 5771 5772 5772 5773 5774 5775 5776 5777 5777 5778 5778 5779 5780 5780 5781
5768 5767 5766 5765 5764 5763 5762 5762 5761 5761 5760 5760 5760 5760 5760 5760 5760 5760 5760 5760 5760 5761 5761 5762 5762 5763 5764 5764 5765 5766 5767 5767 5768 5769 5770 5771 5771 5772 5772 5773 5774 5774 5775
5761 5760 5759 5758 5757 5756 5755 5754 5753 5753 5752 5752 5752 5752 5752 5753 5753 5753 5753 5753 5753 5754 5754 5755 5756 5756 5757 5758 5759 5760 5761 5761 5762 5763 5764 5765 5765 5766 5766 5767 5768 5768 5769
5754 5753 5752 5751 5749 5748 5747 5746 5745 5745 5744 5744 5744 5744 5745 5745 5745 5745 5745 5746 5746 5747 5747 5748 5748 5749 5750 5751 5753 5753 5754 5755 5756 5756 5757 5758 5759 5759 5760 5760 5761 5762 5762
5746 5745 5744 5743 5741 5740 5739 5738 5737 5737 5736 5736 5736 5736 5736 5737 5737 5737 5738 5738 5738 5739 5740 5740 5741 5742 5743 5744 5745 5746 5747 5748 5749 5750 5751 5751 5752 5752 5753 5754 5754 5755 5756
5738 5737 5736 5734 5733 5732 5731 5730 5729 5728 5728 5728 5728 5728 5728 5728 5728 5729 5729 5729 5730 5730 5731 5732 5733 5734 5735 5736 5738 5739 5739 5740 5741 5742 5743 5744 5744 5745 5745 5746 5747 5747 5748
5729 5728 5727 5726 5725 5724 5722 5722 5721 5720 5720 5720 5720 5719 5719 5719 5719 5720 5720 5720 5721 5722 5723 5724 5725 5726 5727 5728 5729 5730 5731 5732 5733 5734 5735 5736 5736 5737 5737 5738 5739 5739 5740
5720 5719 5718 5717 5716 5715 5714 5713 5713 5712 5712 5712 5711 5711 5710 5710 5710 5710 5711 5711 5712 5713 5714 5714 5715 5717 5718 5719 5720 5721 5722 5723 5724 5725 5725 5727 5728 5728 5729 5729 5730 5731 5731
5711 5710 5709 5708 5707 5707 5706 5705 5704 5704 5703 5703 5702 5702 5701 5701 5701 5701 5701 5702 5703 5704 5705 5705 5706 5708 5709 5709 5710 5712 5713 5714 5715 5716 5717 5718 5718 5719 5720 5721 5721 5722 5723